TimeEDT,TemperatureF,Dew PointF,Humidity,Sea Level PressureIn,VisibilityMPH,Wind Direction,Wind SpeedMPH,Gust SpeedMPH,PrecipitationIn,Events,Conditions,WindDirDegrees,DateUTC
12:38 AM,48.2,46.4,93,29.81,10.0,Calm,Calm,-,N/A,,Overcast,0,2012-10-19 04:38:00
12:51 AM,46.9,45.0,93,29.78,10.0,Calm,Calm,-,N/A,,Overcast,0,2012-10-19 04:51:00
1:07 AM,48.2,46.4,93,29.81,10.0,Calm,Calm,-,N/A,,Overcast,0,2012-10-19 05:07:00
1:30 AM,46.4,46.4,100,29.81,10.0,Calm,Calm,-,N/A,,Overcast,0,2012-10-19 05:30:00
1:51 AM,46.0,45.0,96,29.76,10.0,Calm,Calm,-,N/A,,Overcast,0,2012-10-19 05:51:00
1:59 AM,46.4,46.4,100,29.81,10.0,Calm,Calm,-,N/A,,Overcast,0,2012-10-19 05:59:00
2:51 AM,46.9,45.0,93,29.75,10.0,Calm,Calm,-,N/A,,Overcast,0,2012-10-19 06:51:00
3:51 AM,46.9,46.0,97,29.74,10.0,ESE,4.6,-,N/A,,Overcast,120,2012-10-19 07:51:00
4:23 AM,46.4,42.8,87,29.77,10.0,SE,4.6,-,N/A,,Scattered Clouds,140,2012-10-19 08:23:00
4:51 AM,46.9,42.1,83,29.76,10.0,SE,5.8,-,N/A,,Clear,140,2012-10-19 08:51:00
5:51 AM,46.0,39.9,79,29.75,10.0,SE,4.6,-,N/A,,Clear,140,2012-10-19 09:51:00
6:51 AM,46.9,37.9,71,29.75,10.0,SE,5.8,-,N/A,,Clear,140,2012-10-19 10:51:00
7:51 AM,46.0,37.0,71,29.76,10.0,SE,8.1,-,N/A,,Clear,140,2012-10-19 11:51:00
8:51 AM,48.9,39.9,71,29.78,10.0,SSE,5.8,-,N/A,,Clear,150,2012-10-19 12:51:00
9:51 AM,54.0,39.9,59,29.76,10.0,South,6.9,-,N/A,,Clear,190,2012-10-19 13:51:00
10:51 AM,55.0,37.0,51,29.75,10.0,SSW,15.0,19.6,N/A,,Clear,210,2012-10-19 14:51:00
11:51 AM,57.9,32.0,37,29.74,10.0,SSW,12.7,20.7,N/A,,Clear,210,2012-10-19 15:51:00
12:51 PM,59.0,32.0,36,29.73,10.0,SSW,12.7,24.2,N/A,,Clear,200,2012-10-19 16:51:00
1:51 PM,60.1,30.9,33,29.69,10.0,WSW,13.8,21.9,N/A,,Clear,240,2012-10-19 17:51:00
2:51 PM,62.1,30.9,31,29.66,10.0,SW,15.0,-,N/A,,Clear,220,2012-10-19 18:51:00
3:51 PM,62.1,27.0,26,29.65,10.0,SSW,16.1,24.2,N/A,,Partly Cloudy,210,2012-10-19 19:51:00
4:51 PM,61.0,28.0,29,29.65,10.0,WSW,13.8,20.7,N/A,,Overcast,240,2012-10-19 20:51:00
5:51 PM,60.1,28.0,30,29.66,10.0,SW,15.0,20.7,N/A,,Overcast,230,2012-10-19 21:51:00
6:51 PM,59.0,28.9,32,29.68,10.0,SW,12.7,21.9,N/A,,Overcast,230,2012-10-19 22:51:00
7:51 PM,57.9,30.0,35,29.70,10.0,WSW,6.9,16.1,N/A,,Overcast,240,2012-10-19 23:51:00
8:51 PM,55.9,33.1,42,29.73,10.0,NNW,10.4,-,N/A,,Overcast,330,2012-10-20 00:51:00
9:51 PM,52.0,36.0,54,29.76,10.0,NNW,10.4,-,N/A,,Overcast,330,2012-10-20 01:51:00
10:51 PM,48.9,37.0,64,29.78,10.0,North,5.8,-,N/A,,Overcast,350,2012-10-20 02:51:00
11:51 PM,46.9,37.9,71,29.77,10.0,NNW,3.5,-,N/A,,Overcast,340,2012-10-20 03:51:00